Colorado City, AZ

5:30 PM MST on November 11, 2019 (GMT -0700)
Colorado City Municipal

Weather History for KAZC - September, 2019

Change the Weather History Date:

Friday, September 13, 2019

  Actual Average (WUND) Record (WUND)
Temperature  
Mean Temperature 71 °F -  
Max Temperature 91 °F - - (-1)
Min Temperature 51 °F - - (-1)
Cooling Degree Days 6    
Growing Degree Days 21 (Base 50)    
Moisture  
Dew Point 26 °F    
Average Humidity 20    
Maximum Humidity 41    
Minimum Humidity 8    
Precipitation  
Precipitation 0.00 in - - ()
Sea Level Pressure  
Sea Level Pressure 30.25 in    
Wind  
Wind Speed 4 mph (ENE)    
Max Wind Speed 9 mph    
Max Gust Speed -    
Visibility 10 miles    
Events      
Averages and records for this station are not official NWS values.
T = Trace of Precipitation, MM = Missing Value Source: NWS Daily Summary

Daily Weather History Graph

Daily Weather History Graph

Search for Another Location

Airport or City:

Astronomy

Sep. 13, 2019 Rise Set
Actual Time 6:12 AM MST 6:42 PM MST
Civil Twilight 5:46 AM MST 7:08 PM MST
Nautical Twilight 5:15 AM MST 7:39 PM MST
Astronomical Twilight 4:44 AM MST 8:10 PM MST
Moon 6:56 PM MST (9/13) 5:35 AM MST (9/13)
Length of Visible Light 13h 22m
Length of Day
12h 30m
Full, 100% of the Moon is Illuminated
Sep 13
Full
Sep 13
Full
Sep 21
Last Quarter
Sep 28
New
Oct 5
First Quarter

Hourly Weather History & Observations

Time (MST) Temp. Dew Point Humidity Pressure Visibility Wind Dir Wind Speed Gust Speed Precip Events Conditions
12:15 AM 68.0 °F 24.8 °F 20% 30.28 in - NE 3.5 mph - N/A   Clear
12:35 AM 68.0 °F 26.6 °F 21% 30.28 in - Calm Calm - N/A   Clear
12:55 AM 64.4 °F 26.6 °F 24% 30.28 in - North - - N/A   Clear
1:15 AM 64.4 °F 26.6 °F 24% 30.28 in - NE 3.5 mph - N/A   Clear
1:35 AM 66.2 °F 28.4 °F 24% 30.28 in 10.0 mi NNE 4.6 mph - N/A   Clear
1:55 AM 66.2 °F 28.4 °F 24% 30.28 in - NE 5.8 mph - N/A   Clear
2:15 AM 68.0 °F 28.4 °F 23% 30.28 in - NNE 6.9 mph - N/A   Clear
2:35 AM 68.0 °F 28.4 °F 23% 30.28 in - NE 4.6 mph - N/A   Clear
2:55 AM 64.4 °F 28.4 °F 26% 30.28 in - NE 6.9 mph - N/A   Clear
3:15 AM 62.6 °F 28.4 °F 27% 30.28 in - ENE 8.1 mph - N/A   Clear
3:55 AM 64.4 °F 30.2 °F 28% 30.27 in 10.0 mi NE 6.9 mph - N/A   Clear
4:15 AM 64.4 °F 30.2 °F 28% 30.27 in 10.0 mi ENE 6.9 mph - N/A   Clear
4:35 AM 62.6 °F 28.4 °F 27% 30.28 in 10.0 mi Calm Calm - N/A   Clear
4:55 AM 57.2 °F 28.4 °F 33% 30.28 in - South 3.5 mph - N/A   Clear
5:15 AM 55.4 °F 28.4 °F 36% 30.28 in 10.0 mi Calm Calm - N/A   Clear
5:35 AM 53.6 °F 28.4 °F 38% 30.29 in 10.0 mi SSW 3.5 mph - N/A   Clear
5:55 AM 51.8 °F 28.4 °F 41% 30.29 in 10.0 mi South 4.6 mph - N/A   Clear
6:15 AM 51.8 °F 28.4 °F 41% 30.30 in 10.0 mi Calm Calm - N/A   Clear
6:35 AM 53.6 °F 28.4 °F 38% 30.30 in 10.0 mi Calm Calm - N/A   Clear
6:55 AM 55.4 °F 30.2 °F 38% 30.30 in 10.0 mi Calm Calm - N/A   Clear
7:15 AM 59.0 °F 32.0 °F 36% 30.30 in 10.0 mi Calm Calm - N/A   Clear
7:35 AM 64.4 °F 32.0 °F 30% 30.30 in 10.0 mi Calm Calm - N/A   Clear
7:55 AM 71.6 °F 30.2 °F 22% 30.30 in 10.0 mi NNE 5.8 mph - N/A   Clear
8:15 AM 71.6 °F 32.0 °F 23% 30.31 in 10.0 mi NNE 8.1 mph - N/A   Clear
8:35 AM 75.2 °F 32.0 °F 21% 30.31 in 10.0 mi NE 9.2 mph - N/A   Clear
8:55 AM 77.0 °F 30.2 °F 18% 30.31 in 10.0 mi NE 9.2 mph - N/A   Clear
9:15 AM 78.8 °F 30.2 °F 17% 30.31 in 10.0 mi NNE 5.8 mph - N/A   Clear
9:35 AM 80.6 °F 30.2 °F 16% 30.31 in 10.0 mi NE 6.9 mph - N/A   Clear
9:55 AM 82.4 °F 26.6 °F 13% 30.31 in 10.0 mi ESE 4.6 mph - N/A   Clear
10:15 AM 82.4 °F 26.6 °F 13% 30.30 in 10.0 mi Calm Calm - N/A   Clear
10:35 AM 84.2 °F 26.6 °F 12% 30.30 in 10.0 mi ENE 3.5 mph - N/A   Clear
10:55 AM 82.4 °F 26.6 °F 13% 30.30 in 10.0 mi SE 4.6 mph - N/A   Clear
11:15 AM 86.0 °F 26.6 °F 12% 30.30 in 10.0 mi Calm Calm - N/A   Clear
11:35 AM 86.0 °F 26.6 °F 12% 30.28 in 10.0 mi Calm Calm - N/A   Clear
11:55 AM 86.0 °F 24.8 °F 11% 30.28 in 10.0 mi SE 6.9 mph - N/A   Clear
12:15 PM 87.8 °F 24.8 °F 10% 30.27 in 10.0 mi South 5.8 mph - N/A   Clear
12:35 PM 87.8 °F 24.8 °F 10% 30.27 in 10.0 mi West 5.8 mph - N/A   Clear
12:55 PM 89.6 °F 26.6 °F 10% 30.26 in 10.0 mi WSW 3.5 mph - N/A   Clear
1:15 PM 89.6 °F 24.8 °F 10% 30.25 in 10.0 mi SE 6.9 mph - N/A   Clear
1:35 PM 89.6 °F 24.8 °F 10% 30.24 in 10.0 mi WSW 3.5 mph - N/A   Clear
1:55 PM 91.4 °F 24.8 °F 9% 30.23 in 10.0 mi East 5.8 mph - N/A   Clear
2:15 PM 89.6 °F 23.0 °F 9% 30.22 in 10.0 mi NE 5.8 mph - N/A   Clear
2:35 PM 91.4 °F 23.0 °F 8% 30.22 in 10.0 mi Calm Calm - N/A   Clear
2:55 PM 91.4 °F 23.0 °F 8% 30.21 in 10.0 mi Calm Calm - N/A   Clear
3:15 PM 89.6 °F 23.0 °F 9% 30.20 in 10.0 mi SE 5.8 mph - N/A   Clear
3:35 PM 91.4 °F 23.0 °F 8% 30.20 in 10.0 mi ENE 4.6 mph - N/A   Clear
3:55 PM 91.4 °F 23.0 °F 8% 30.20 in 10.0 mi Calm Calm - N/A   Clear
4:15 PM 89.6 °F 23.0 °F 9% 30.19 in 10.0 mi Calm Calm - N/A   Clear
4:35 PM 89.6 °F 23.0 °F 9% 30.19 in 10.0 mi NNW 3.5 mph - N/A   Clear
4:55 PM 89.6 °F 23.0 °F 9% 30.19 in 10.0 mi Calm Calm - N/A   Clear
5:15 PM 89.6 °F 23.0 °F 9% 30.19 in 10.0 mi East 4.6 mph - N/A   Clear
5:35 PM 89.6 °F 23.0 °F 9% 30.19 in 10.0 mi West 4.6 mph - N/A   Clear
5:55 PM 87.8 °F 26.6 °F 11% 30.19 in 10.0 mi NW 6.9 mph - N/A   Clear
6:15 PM 86.0 °F 26.6 °F 12% 30.19 in 10.0 mi NW 4.6 mph - N/A   Clear
6:35 PM 82.4 °F 26.6 °F 13% 30.18 in 10.0 mi NNW 6.9 mph - N/A   Clear
6:55 PM 78.8 °F 23.0 °F 13% 30.19 in 10.0 mi NNW 5.8 mph - N/A   Clear
7:15 PM 77.0 °F 23.0 °F 13% 30.19 in 10.0 mi NNW 5.8 mph - N/A   Clear
7:35 PM 71.6 °F 23.0 °F 16% 30.20 in - North 5.8 mph - N/A   Clear
7:55 PM 71.6 °F 23.0 °F 16% 30.20 in - NNW 3.5 mph - N/A   Clear
8:15 PM 73.4 °F 23.0 °F 15% 30.20 in - North 4.6 mph - N/A   Clear
8:35 PM 69.8 °F 21.2 °F 16% 30.21 in - East 4.6 mph - N/A   Clear
8:55 PM 62.6 °F 24.8 °F 24% 30.22 in - ESE 5.8 mph - N/A   Clear
9:15 PM 62.6 °F 24.8 °F 24% 30.22 in - SE 3.5 mph - N/A   Clear
9:35 PM 60.8 °F 24.8 °F 25% 30.23 in - Calm Calm - N/A   Clear
9:55 PM 57.2 °F 23.0 °F 27% 30.23 in - ESE 3.5 mph - N/A   Clear
10:15 PM 57.2 °F 23.0 °F 27% 30.23 in - Calm Calm - N/A   Clear
10:35 PM 59.0 °F 23.0 °F 25% 30.23 in 10.0 mi SSE 4.6 mph - N/A   Clear
10:55 PM 57.2 °F 23.0 °F 27% 30.23 in 10.0 mi SSE 3.5 mph - N/A   Clear
11:15 PM 55.4 °F 23.0 °F 29% 30.24 in 10.0 mi SE 5.8 mph - N/A   Clear
11:35 PM 53.6 °F 23.0 °F 30% 30.23 in - SSE 3.5 mph - N/A   Clear
11:55 PM 53.6 °F 23.0 °F 30% 30.23 in 10.0 mi South 4.6 mph - N/A   Clear